Location: La Plant
(45.1447°N, 100.6515°W)
Time: 23:08:54
(UTC+00:00)

ISS - Pass Details

Date: 28 November 2020
Orbit: 418 x 419 km, 51.6° (Epoch: 18 January)

Event Time Altitude Azimuth Distance (km) Brightness Sun altitude
Rises 23:57:25 0° 265° (W) 2,364 1.8 -9.4°
Reaches altitude 10° 23:59:37 10° 274° (W) 1,501 0.2 -9.8°
Maximum altitude 00:02:46 36° 343° (NNW) 680 -2.7 -10.3°
Enters shadow 00:05:15 15° 47° (NE) 1,254 -1.9 -10.7°
